Home   Weather   Frankfurt an der Oder   Past weeks

Flag for Germany Past Weather in Frankfurt an der Oder, Brandenburg, Germany — Yesterday and Last 2 Weeks

Now
38 °F

Passing clouds.


Feels Like: 35 °F
Forecast: 40 / 53 °F
Wind: 5 mph from West

Location: Gorzow Wlkp

Current Time: Apr 24, 2017 at 4:00:55 am

Latest Report: Apr 24, 2017 at 3:00 am


Visibility: 28 mi

Pressure: 30.07 "Hg

Humidity: 77%

Dew Point: 31 °F

Location of Frankfurt an der OderLocation

Past Weather in Frankfurt an der Oder — Graph

°F

Frankfurt an der Oder Temperature Yesterday

Maximum temperature yesterday: 49 °F (at 2:00 pm)
Minimum temperature yesterday: 36 °F (at 6:00 am)
Average temperature yesterday: 41 °F

High & Low Weather Summary for the Past Weeks

 TemperatureHumidityPressure
High71 °F (Apr 10, 3:00 pm)96% (Apr 12, 5:00 am)30.57 "Hg (Apr 12, 5:00 am)
Low27 °F (Apr 20, 6:00 am)36% (Apr 20, 4:00 pm)29.67 "Hg (Apr 13, 2:00 am)
Average44 °F71%30.05 "Hg
* Reported Apr 9 2:00 am — Apr 24 2:00 am, Frankfurt an der Oder, Weather by CustomWeather, © 2017

Note: Actual official high and low records may vary slightly from our data, if they occured in-between our weather recording intervals... More about our weather records

Advertising

Frankfurt an der Oder Weather History for the Previous 24 Hours

Scroll right to see more
 ConditionsComfort  
Time TempWeatherWind HumidityBarometerVisibility
2:00 am
Mon, Apr 24
38 °FPassing clouds.5 mph75%30.08 "Hg25 mi
1:00 am39 °FClear.3 mph75%30.08 "Hg25 mi
12:00 am39 °FClear.5 mph72%30.08 "Hg25 mi
11:00 pm
Sun, Apr 23
40 °FClear.3 mph71%30.08 "Hg25 mi
10:00 pm41 °FClear.3 mph70%30.07 "Hg25 mi
9:00 pm42 °FPassing clouds.3 mph66%30.05 "Hg22 mi
8:00 pm43 °FScattered clouds.3 mph68%30.03 "Hg22 mi
7:00 pm44 °FScattered clouds.6 mph61%30.02 "Hg22 mi
6:00 pm44 °FPartly sunny.3 mph71%30.01 "Hg16 mi
5:00 pm45 °FPartly sunny.5 mph64%30.01 "Hg12 mi
4:00 pm42 °FPartly sunny.6 mph79%30.02 "Hg22 mi
3:00 pm47 °FPartly sunny.5 mph58%30.00 "Hg6 mi
2:00 pm49 °FPartly sunny.6 mph50%30.00 "Hg19 mi
1:00 pm47 °FOvercast.6 mph60%30.02 "Hg16 mi
12:00 pm45 °FPartly sunny.5 mph62%30.03 "Hg19 mi
11:00 am43 °FOvercast.5 mph67%30.04 "Hg16 mi
10:00 am42 °FOvercast.5 mph79%30.04 "Hg9 mi
9:00 am40 °FOvercast.5 mph86%30.03 "Hg9 mi
8:00 am38 °FOvercast.3 mph89%30.03 "Hg9 mi
7:00 am38 °FOvercast.5 mph91%30.01 "Hg12 mi
6:00 am36 °FScattered clouds.5 mph92%29.99 "Hg12 mi
5:00 am37 °FClear.5 mph92%29.98 "Hg16 mi
4:00 am38 °FClear.5 mph90%29.97 "Hg19 mi
Weather by CustomWeather, © 2017

See weather overviewHow to use our weather pages